TimeCDT,TemperatureF,Dew PointF,Humidity,Sea Level PressureIn,VisibilityMPH,Wind Direction,Wind SpeedMPH,Gust SpeedMPH,PrecipitationIn,Events,Conditions,WindDirDegrees,DateUTC
12:53 AM,61.0,57.9,90,30.04,10.0,Calm,Calm,-,N/A,,Clear,0,2013-05-16 05:53:00
1:53 AM,60.1,57.0,90,30.01,10.0,Calm,Calm,-,N/A,,Clear,0,2013-05-16 06:53:00
2:53 AM,60.1,57.0,90,30.01,10.0,Calm,Calm,-,N/A,,Partly Cloudy,0,2013-05-16 07:53:00
3:53 AM,57.0,55.9,96,30.01,3.0,Calm,Calm,-,N/A,,Clear,0,2013-05-16 08:53:00
4:53 AM,57.9,55.9,93,29.99,4.0,Calm,Calm,-,N/A,,Mostly Cloudy,0,2013-05-16 09:53:00
5:53 AM,59.0,57.0,93,29.99,4.0,Calm,Calm,-,N/A,,Clear,0,2013-05-16 10:53:00
6:15 AM,57.2,57.2,100,30.01,1.8,Calm,Calm,-,N/A,,Clear,0,2013-05-16 11:15:00
6:34 AM,57.2,57.2,100,30.01,2.5,SSE,3.5,-,N/A,,Clear,150,2013-05-16 11:34:00
6:45 AM,60.8,57.2,88,30.01,4.0,SSE,3.5,-,N/A,,Clear,150,2013-05-16 11:45:00
6:53 AM,61.0,59.0,93,30.00,4.0,SSE,3.5,-,N/A,,Clear,160,2013-05-16 11:53:00
7:20 AM,62.6,62.6,100,30.02,6.0,SSE,4.6,-,N/A,Thunderstorm,Mostly Cloudy,160,2013-05-16 12:20:00
7:35 AM,64.4,62.6,94,30.02,7.0,SE,3.5,-,N/A,,Mostly Cloudy,140,2013-05-16 12:35:00
7:53 AM,64.9,63.0,93,30.02,5.0,Calm,Calm,-,N/A,Thunderstorm,Scattered Clouds,0,2013-05-16 12:53:00
8:17 AM,66.2,64.4,94,30.04,7.0,SSE,3.5,-,N/A,Thunderstorm,Mostly Cloudy,160,2013-05-16 13:17:00
8:31 AM,66.2,64.4,94,30.05,9.0,Calm,Calm,-,N/A,,Overcast,0,2013-05-16 13:31:00
8:53 AM,68.0,64.9,90,30.05,10.0,South,5.8,-,N/A,,Overcast,180,2013-05-16 13:53:00
9:02 AM,69.8,64.4,83,30.06,10.0,South,5.8,-,N/A,,Overcast,190,2013-05-16 14:02:00
10:53 AM,73.9,64.9,73,30.02,10.0,South,11.5,-,N/A,,Unknown,180,2013-05-16 15:53:00
11:53 AM,77.0,62.1,60,29.99,10.0,South,12.7,19.6,N/A,,Unknown,180,2013-05-16 16:53:00
12:53 PM,80.1,62.1,54,29.97,10.0,SSE,13.8,19.6,N/A,,Clear,150,2013-05-16 17:53:00
1:53 PM,80.1,60.1,50,29.96,10.0,South,12.7,-,N/A,,Unknown,170,2013-05-16 18:53:00
2:53 PM,78.1,59.0,52,29.96,10.0,South,8.1,-,N/A,,Partly Cloudy,180,2013-05-16 19:53:00
3:53 PM,77.0,62.1,60,29.94,10.0,SSE,8.1,-,N/A,,Clear,150,2013-05-16 20:53:00
4:53 PM,80.1,62.1,54,29.92,10.0,South,13.8,21.9,N/A,,Clear,170,2013-05-16 21:53:00
5:53 PM,80.1,63.0,56,29.91,10.0,South,8.1,-,N/A,,Partly Cloudy,170,2013-05-16 22:53:00
6:53 PM,78.1,63.0,60,29.91,10.0,South,8.1,-,N/A,,Clear,170,2013-05-16 23:53:00
7:53 PM,75.0,63.0,66,29.93,10.0,SSE,5.8,-,N/A,,Clear,150,2013-05-17 00:53:00
8:53 PM,73.0,63.0,71,29.91,10.0,SSE,12.7,-,N/A,,Clear,160,2013-05-17 01:53:00
9:53 PM,72.0,64.9,78,29.94,10.0,South,9.2,-,N/A,,Clear,170,2013-05-17 02:53:00
10:53 PM,70.0,66.0,87,29.95,10.0,SSE,5.8,-,N/A,,Partly Cloudy,150,2013-05-17 03:53:00
11:53 PM,70.0,66.0,87,29.95,10.0,South,5.8,-,N/A,,Partly Cloudy,180,2013-05-17 04:53:00